Flag for France Weather past 2 weeks in Rodez, France

Now
73 °F

Sunny.


Feels Like: 77 °F
Forecast: 69 / 88 °F
Wind: 21 mph from Southeast

Location: Rodez Airport

Current Time: Jul 1, 2015 at 8:35:38 AM

Latest Report: Jul 1, 2015 at 8:00 AM


Visibility: 10 mi

Pressure: 30.04 "Hg

Humidity: 47%

Dew point: 52 °F

Location of RodezLocation

Historic Weather in Rodez — Graph

°F

Rodez temperature yesterday

Maximum temperature yesterday: 93 °F (at 3:00 PM)
Minimum temperature yesterday: 61 °F (at 5:30 AM)
Average temperature yesterday: 77 °F

Past Weeks' High & Low Weather Summary

 TemperatureHumidityPressure
High93 °F (Jun 30, 3:00 PM)100% (Jun 16, 9:00 AM)30.24 "Hg (Jun 16, 9:00 AM)
Low45 °F (Jun 24, 5:30 AM)21% (Jun 24, 5:30 PM)29.95 "Hg (Jun 22, 5:30 PM)
Average67 °F59%30.15 "Hg
* Reported Jun 16 7:00 AM — Jul 1 7:30 AM, Rodez, Weather by CustomWeather, © 2015

Note: Actual official high and low records may vary slightly from our data, if they occured in-between our weather recording intervals... More about our weather records

Advertising

Rodez weather history for previous 24 hours

 ConditionsComfort  
Time TempWeatherWind HumidityBarometerVisibility
7:30 AM
Wed, Jul 1
73 °FSunny.17 mph47%30.04 "Hg10 mi
7:00 AM73 °FClear.14 mph44%30.04 "Hg10 mi
6:30 AM72 °FPassing clouds.16 mph47%30.04 "HgN/A
6:00 AM72 °FClear.15 mph47%30.04 "Hg10 mi
5:30 AM72 °FClear.15 mph47%30.04 "Hg10 mi
5:00 AM72 °FClear.13 mph47%30.04 "Hg10 mi
4:30 AM72 °FPassing clouds.12 mph47%30.04 "HgN/A
4:00 AM72 °FClear.13 mph44%30.04 "Hg10 mi
3:30 AM72 °FClear.14 mph44%30.04 "Hg10 mi
3:00 AM72 °FClear.14 mph47%30.07 "Hg10 mi
2:30 AM73 °FClear.13 mph41%30.07 "Hg10 mi
2:00 AM73 °FClear.13 mph44%30.07 "Hg10 mi
1:30 AM73 °FClear.12 mph44%30.07 "Hg10 mi
1:00 AM73 °FClear.12 mph44%30.07 "Hg10 mi
12:30 AM73 °FClear.10 mph47%30.07 "Hg10 mi
12:00 AM75 °FClear.13 mph44%30.07 "Hg10 mi
11:30 PM
Tue, Jun 30
75 °FClear.13 mph44%30.07 "Hg10 mi
11:00 PM75 °FClear.13 mph44%30.07 "Hg10 mi
10:30 PM77 °FSunny.12 mph42%30.07 "Hg10 mi
10:00 PM77 °FSunny.10 mph44%30.07 "Hg10 mi
9:30 PM79 °FSunny.8 mph45%30.07 "Hg10 mi
9:00 PM81 °FSunny.14 mph42%30.07 "Hg10 mi
8:30 PM82 °FSunny.14 mph40%30.07 "Hg10 mi
8:00 PM84 °FSunny.15 mph37%30.07 "Hg10 mi
7:00 PM88 °FSunny.15 mph35%30.04 "Hg10 mi
6:30 PM90 °FSunny.15 mph33%30.04 "Hg10 mi
6:00 PM90 °FPassing clouds.13 mph29%30.07 "HgN/A
5:00 PM91 °FSunny.13 mph30%30.07 "Hg10 mi
4:30 PM91 °FPassing clouds.12 mph26%30.07 "HgN/A
4:00 PM91 °FPassing clouds.13 mph26%30.07 "HgN/A
3:00 PM93 °FPassing clouds.9 mph24%30.07 "HgN/A
2:30 PM91 °FPassing clouds.9 mph23%30.07 "HgN/A
2:00 PM91 °FPassing clouds.10 mph24%30.09 "HgN/A
1:30 PM90 °FPassing clouds.9 mph29%30.09 "HgN/A
1:00 PM90 °FPassing clouds.12 mph29%30.09 "HgN/A
12:30 PM88 °FPassing clouds.10 mph33%30.09 "HgN/A
12:00 PM86 °FPassing clouds.12 mph33%30.09 "HgN/A
11:30 AM86 °FPassing clouds.13 mph33%30.09 "HgN/A
11:00 AM84 °FSunny.13 mph35%30.09 "Hg10 mi
10:30 AM84 °FPassing clouds.15 mph33%30.09 "HgN/A
10:00 AM82 °FSunny.14 mph37%30.09 "Hg10 mi
9:30 AM81 °FSunny.13 mph39%30.09 "Hg10 mi
9:00 AM79 °FSunny.9 mph42%30.09 "Hg10 mi
8:30 AM73 °FSunny.8 mph53%30.09 "Hg10 mi
8:00 AM72 °FSunny.5 mph57%30.09 "Hg10 mi
Weather by CustomWeather, © 2015

See weather overviewHow to use our weather pages